Lid_Strength_Index
1 -1 -2 -2 -2 -2 -2 -1 -2 -2 -2 -2 -2 -2 -2 -2 -2 -2 -2 -2 -2 -2 -2 -2 -2 -2 -2 -2 -2 -2 -2 -2 -2 -2 -2 -2 -2 -2 -2 -2 -2 -1 -2
-0 -1 -1 -2 -1 -2 -1 -1 -2 -2 -2 -2 -2 -2 -2 -2 -2 -2 -2 -2 -2 -2 -2 -2 -2 -2 -2 -2 -2 -2 -2 -2 -2 -2 -2 -1 -2 -2 -2 -2 -1 -1 -2
-0 -1 -1 -1 -1 -1 -2 -2 -2 -2 -2 -2 -2 -2 -2 -2 -2 -2 -2 -2 -2 -2 -2 -2 -2 -2 -2 -2 -2 -2 -2 -1 -1 -1 -0 -0 -1 -2 -2 -2 -2 -2 -2
-1 -1 -1 -1 -1 -1 -2 -2 -2 -2 -2 -2 -2 -2 -2 -2 -2 -2 -2 -2 -2 -2 -2 -2 -2 -2 -2 -2 -2 -2 -2 -2 -1 -0 0 -0 -0 -1 -2 -2 -2 -2 -2
-0 -1 -1 -1 -1 -1 -2 -1 -2 -2 -2 -2 -2 -2 -2 -2 -2 -2 -2 -2 -2 -2 -2 -2 -2 -2 -2 -2 -2 -2 -2 -1 -1 -0 -1 -1 -1 -1 -2 -2 -1 -2 -2
-0 -1 -1 -1 -1 -1 -1 -2 -2 -2 -2 -2 -2 -2 -2 -2 -2 -2 -2 -2 -1 -2 -2 -2 -2 -2 -2 -2 -2 -1 -2 -2 -0 -0 -0 -0 -1 -1 -2 -2 -2 -2 -2
-0 -1 -1 -1 -1 -1 -2 -2 -1 -2 -2 -2 -2 -2 -2 -2 -2 -2 -2 -2 -1 -1 -1 -2 -2 -2 -1 -1 -1 -1 -1 -2 -1 -1 -1 -1 -1 -2 -1 -2 -2 -2 -2
-0 -1 -1 0 -0 -1 -1 -1 -2 -2 -2 -2 -2 -2 -1 -1 -2 -2 -2 -1 -1 -1 -1 -2 -2 -1 -1 -1 -1 -2 -1 -1 -0 -0 -0 -1 -1 -2 -2 -2 -2 -2 -2
-1 -1 -1 -1 -0 1 -0 -0 -1 -2 -2 -2 -2 -2 -2 -2 -2 -2 -1 -1 -1 -1 -1 -1 -1 -1 -1 -1 -2 -1 -0 0 -1 -0 0 -0 -1 -2 -2 -2 -2 -2 -2
-0 -0 -1 -1 -1 -1 -1 0 -1 -1 -2 -2 -1 -1 -1 -1 -1 -1 -1 -1 -1 -1 -1 -1 -1 -1 -1 -1 -0 -0 1 1 -1 -1 -1 -1 -2 -2 -2 -2 -2 -2 -2
1 0 -1 -1 -1 -1 -1 0 0 -0 -0 -0 -1 -0 0 -1 -0 -0 0 -1 -1 -1 -1 -1 -1 -1 -0 -0 -1 0 1 -0 -1 -0 0 -0 -2 -2 -2 -2 -2 -2 -2
2 1 0 -1 -1 -1 -1 -1 -1 -1 -1 -1 -1 -1 -1 -1 -1 -0 2 1 1 1 -0 -1 -1 0 1 -0 -0 1 1 1 1 1 0 -1 -1 -2 -2 -2 -2 -2 -2
1 1 1 -0 -0 -1 -0 -0 -0 -0 0 -0 -0 -0 -0 -0 -0 -0 -1 -0 -1 2 -0 -0 0 1 1 1 1 2 2 2 1 2 2 -0 -2 -2 -2 -2 -1 -1 -1
2 1 1 -0 -0 -0 0 0 0 0 0 -0 -0 -1 -0 -0 -0 -0 -0 -1 -1 -1 -1 -1 1 1 2 2 2 3 3 2 3 5 4 3 1 0 -0 -0 -0 0 0
2 1 1 0 0 0 0 0 0 0 -0 -0 -0 -0 -0 -0 0 -0 -1 -0 0 0 1 2 2 3 5 4 3 3 3 3 4 5 6 5 3 2 1 0 -0 -0 1
2 1 2 1 0 1 1 1 0 -0 -0 -0 -0 -0 -0 0 0 -0 1 2 2 2 3 3 5 6 7 4 4 4 5 7 9 9 9 8 5 3 2 2 3 3 3
1 2 2 0 0 1 2 1 0 0 0 0 1 0 -0 -1 1 1 3 4 4 4 4 4 6 7 7 5 5 6 8 10 11 10 10 9 8 5 5 5 5 5 4
2 2 1 0 1 1 2 0 0 1 2 3 3 3 2 2 2 3 5 6 7 7 5 7 7 8 8 6 6 7 9 11 12 11 11 10 9 8 8 8 8 7 6
2 1 1 0 1 1 1 2 4 5 6 6 6 5 5 5 5 6 7 8 8 8 8 8 9 9 10 7 8 9 11 13 12 12 12 12 11 11 12 12 12 11 9
2 1 1 1 1 2 3 5 7 8 9 8 9 8 8 8 8 8 9 9 9 9 10 9 9 10 11 9 9 10 11 13 13 13 12 11 12 13 13 14 15 14 11
2 2 1 2 2 3 4 6 6 9 10 10 10 10 10 10 9 9 9 10 11 11 11 11 10 11 12 12 9 11 12 14 14 14 12 12 12 13 14 15 15 15 14
2 2 2 2 3 3 3 5 7 10 11 12 11 11 11 10 10 10 10 11 11 12 12 12 12 12 13 13 13 10 11 12 13 14 13 12 12 13 14 14 15 15 15
2 2 2 2 3 2 6 9 11 11 12 12 12 12 12 11 11 11 12 12 12 12 13 14 14 13 13 13 14 13 14 14 14 11 14 13 12 12 13 14 15 15 15
4 3 2 2 3 6 8 9 9 10 12 13 13 12 12 11 11 11 12 12 13 14 14 14 14 14 14 15 14 14 14 14 14 15 12 14 13 12 13 14 15 15 15
7 7 7 7 6 7 8 9 10 13 13 13 13 12 12 13 13 13 13 13 14 15 15 15 15 15 15 15 15 14 14 15 15 15 15 15 14 13 13 14 14 15 15
9 9 9 10 11 11 11 11 12 13 13 13 13 13 14 15 14 14 15 15 15 16 16 16 15 15 15 15 15 16 16 16 16 16 16 16 16 14 12 13 14 14 14